| time (UTC) | temp F | wind direction | speed MPH | gust MPH | rain 1hr in | rain 24hr in | rain mn in | humidity % | barometer mb |
| 20260906114317 | 69 | 277 | 0.0 | 0.0 | 0.00 | 0.01 | 0.01 | 94 | 1024.3 |
| 20260906113812 | 69 | 277 | 0.0 | 0.0 | 0.00 | 0.01 | 0.01 | 94 | 1024.4 |
| 20260906113311 | 69 | 277 | 0.0 | 0.0 | 0.00 | 0.01 | 0.01 | 94 | 1024.6 |
| 20260906112807 | 68 | 279 | 0.0 | 0.0 | 0.00 | 0.01 | 0.01 | 94 | 1024.3 |
| 20260906112306 | 68 | 261 | 0.0 | 0.0 | 0.00 | 0.01 | 0.01 | 94 | 1024.2 |
| 20260906111802 | 67 | 259 | 0.0 | 0.0 | 0.00 | 0.01 | 0.01 | 94 | 1024.2 |
| 20260906111301 | 68 | 262 | 0.0 | 0.0 | 0.00 | 0.01 | 0.01 | 94 | 1024.0 |
| 20260906110757 | 68 | 262 | 0.0 | 0.0 | 0.00 | 0.01 | 0.01 | 94 | 1024.0 |
| 20260906110253 | 68 | 261 | 0.0 | 0.0 | 0.00 | 0.01 | 0.01 | 94 | 1023.9 |
| 20260906105752 | 67 | 261 | 0.0 | 0.0 | 0.00 | 0.01 | 0.01 | 94 | 1023.8 |
| 20260906105248 | 67 | 261 | 0.0 | 0.0 | 0.00 | 0.01 | 0.01 | 94 | 1023.8 |
| 20260906104743 | 67 | 245 | 0.0 | 0.0 | 0.00 | 0.01 | 0.01 | 94 | 1023.7 |
| 20260906104241 | 67 | 245 | 1.0 | 1.0 | 0.00 | 0.01 | 0.01 | 94 | 1023.9 |
| 20260906103739 | 67 | 249 | 0.0 | 0.0 | 0.00 | 0.01 | 0.01 | 94 | 1023.6 |
| 20260906103233 | 68 | 239 | 1.0 | 1.0 | 0.00 | 0.01 | 0.01 | 94 | 1023.4 |
| 20260906102729 | 68 | 235 | 1.0 | 1.0 | 0.00 | 0.01 | 0.01 | 94 | 1023.6 |
| 20260906102223 | 68 | 262 | 0.0 | 0.0 | 0.07 | 0.01 | 0.01 | 94 | 1023.5 |
| 20260906101718 | 68 | 262 | 0.0 | 0.0 | 0.07 | 0.01 | 0.01 | 94 | 1023.5 |
| 20260906101213 | 68 | 262 | 0.0 | 1.0 | 0.00 | 0.00 | 0.00 | 94 | 1023.4 |
| 20260906100708 | 68 | 261 | 0.0 | 0.0 | 0.00 | 0.00 | 0.00 | 94 | 1023.2 |
| 20260906100203 | 68 | 277 | 0.0 | 0.0 | 0.00 | 0.00 | 0.00 | 94 | 1023.1 |
| 20260906095703 | 68 | 277 | 0.0 | 0.0 | 0.00 | 0.00 | 0.00 | 94 | 1023.1 |
| 20260906095158 | 68 | 283 | 1.0 | 1.0 | 0.00 | 0.00 | 0.00 | 94 | 1023.2 |
| 20260906094657 | 68 | 307 | 1.0 | 1.0 | 0.00 | 0.00 | 0.00 | 94 | 1023.1 |
| 20260906094153 | 68 | 288 | 0.0 | 0.0 | 0.00 | 0.00 | 0.00 | 94 | 1023.1 |
| 20260906093650 | 68 | 288 | 0.0 | 0.0 | 0.00 | 0.00 | 0.00 | 94 | 1022.9 |
| 20260906093149 | 68 | 288 | 0.0 | 0.0 | 0.00 | 0.00 | 0.00 | 94 | 1022.8 |
| 20260906092644 | 68 | 288 | 0.0 | 0.0 | 0.00 | 0.00 | 0.00 | 94 | 1022.8 |
| 20260906092144 | 68 | 289 | 1.0 | 1.0 | 0.00 | 0.00 | 0.00 | 94 | 1022.5 |
| 20260906091641 | 68 | 289 | 1.0 | 1.0 | 0.00 | 0.00 | 0.00 | 94 | 1022.7 |
| 20260906091137 | 68 | 283 | 1.0 | 1.0 | 0.00 | 0.00 | 0.00 | 94 | 1022.8 |
| 20260906090632 | 68 | 273 | 0.0 | 1.0 | 0.00 | 0.00 | 0.00 | 94 | 1022.7 |
| 20260906090132 | 68 | 285 | 1.0 | 1.0 | 0.00 | 0.00 | 0.00 | 94 | 1022.7 |
| 20260906085632 | 68 | 272 | 0.0 | 1.0 | 0.00 | 0.00 | 0.00 | 94 | 1022.8 |
| 20260906085131 | 68 | 269 | 0.0 | 0.0 | 0.00 | 0.00 | 0.00 | 94 | 1022.8 |
| 20260906084626 | 68 | 269 | 0.0 | 0.0 | 0.00 | 0.00 | 0.00 | 94 | 1022.7 |
| 20260906084125 | 68 | 269 | 0.0 | 0.0 | 0.00 | 0.00 | 0.00 | 94 | 1022.9 |
| 20260906083620 | 68 | 269 | 0.0 | 0.0 | 0.00 | 0.00 | 0.00 | 94 | 1022.7 |
| 20260906083115 | 68 | 269 | 0.0 | 0.0 | 0.00 | 0.00 | 0.00 | 94 | 1022.9 |
| 20260906082610 | 68 | 281 | 0.0 | 0.0 | 0.00 | 0.00 | 0.00 | 94 | 1023.1 |
| 20260906082106 | 68 | 281 | 0.0 | 0.0 | 0.00 | 0.00 | 0.00 | 94 | 1023.1 |
| 20260906081602 | 68 | 282 | 1.0 | 1.0 | 0.00 | 0.00 | 0.00 | 94 | 1022.9 |
| 20260906081057 | 68 | 287 | 0.0 | 0.0 | 0.00 | 0.00 | 0.00 | 94 | 1023.0 |
| 20260906080553 | 68 | 305 | 1.0 | 1.0 | 0.00 | 0.00 | 0.00 | 94 | 1023.0 |
| 20260906080049 | 68 | 262 | 0.0 | 0.0 | 0.00 | 0.00 | 0.00 | 94 | 1022.9 |
| 20260906075549 | 68 | 262 | 0.0 | 0.0 | 0.00 | 0.00 | 0.00 | 94 | 1022.9 |
| 20260906075044 | 68 | 262 | 0.0 | 0.0 | 0.00 | 0.00 | 0.00 | 94 | 1023.0 |
| 20260906074538 | 68 | 249 | 0.0 | 0.0 | 0.00 | 0.00 | 0.00 | 94 | 1023.1 |
| 20260906074037 | 68 | 249 | 0.0 | 0.0 | 0.00 | 0.00 | 0.00 | 94 | 1023.0 |
| 20260906073532 | 68 | 249 | 0.0 | 0.0 | 0.00 | 0.00 | 0.00 | 94 | 1023.1 |
| 20260906073028 | 68 | 249 | 0.0 | 0.0 | 0.00 | 0.00 | 0.00 | 94 | 1023.0 |
| 20260906072523 | 68 | 248 | 0.0 | 0.0 | 0.00 | 0.00 | 0.00 | 94 | 1023.0 |
| 20260906072020 | 68 | 261 | 0.0 | 0.0 | 0.00 | 0.00 | 0.00 | 94 | 1023.1 |
| 20260906071515 | 68 | 262 | 0.0 | 0.0 | 0.00 | 0.00 | 0.00 | 94 | 1023.0 |
| 20260906071010 | 68 | 263 | 0.0 | 0.0 | 0.00 | 0.00 | 0.00 | 94 | 1022.9 |
| 20260906070507 | 68 | 262 | 0.0 | 0.0 | 0.00 | 0.00 | 0.00 | 94 | 1023.0 |
| 20260906070002 | 68 | 242 | 0.0 | 0.0 | 0.00 | 0.00 | 0.00 | 94 | 1023.1 |
| 20260906065501 | 68 | 242 | 1.0 | 1.0 | 0.00 | 0.00 | 0.00 | 94 | 1023.3 |
| 20260906064957 | 68 | 242 | 1.0 | 1.0 | 0.00 | 0.00 | 0.00 | 94 | 1023.5 |
| 20260906064453 | 68 | 241 | 1.0 | 1.0 | 0.00 | 0.00 | 0.00 | 94 | 1023.4 |
| 20260906063947 | 68 | 241 | 0.0 | 1.0 | 0.00 | 0.00 | 0.00 | 94 | 1023.4 |
| 20260906063443 | 68 | 233 | 1.0 | 1.0 | 0.00 | 0.00 | 0.00 | 94 | 1023.1 |
| 20260906062943 | 68 | 258 | 0.0 | 0.0 | 0.00 | 0.00 | 0.00 | 94 | 1023.6 |
| 20260906062438 | 69 | 258 | 0.0 | 0.0 | 0.00 | 0.00 | 0.00 | 94 | 1023.6 |
| 20260906061933 | 69 | 257 | 1.0 | 1.0 | 0.00 | 0.00 | 0.00 | 94 | 1023.4 |
| 20260906061429 | 69 | 282 | 0.0 | 0.0 | 0.00 | 0.00 | 0.00 | 94 | 1023.5 |
| 20260906060923 | 69 | 290 | 0.0 | 0.0 | 0.00 | 0.00 | 0.00 | 94 | 1023.5 |
| 20260906060421 | 69 | 278 | 1.0 | 1.0 | 0.00 | 0.00 | 0.00 | 94 | 1023.4 |
| 20260906055917 | 69 | 266 | 1.0 | 1.0 | 0.00 | 0.00 | 0.00 | 94 | 1023.4 |
| 20260906055412 | 69 | 266 | 0.0 | 1.0 | 0.00 | 0.00 | 0.00 | 94 | 1023.4 |
| 20260906054908 | 69 | 266 | 0.0 | 0.0 | 0.00 | 0.00 | 0.00 | 94 | 1023.5 |
| 20260906054402 | 69 | 263 | 0.0 | 0.0 | 0.00 | 0.00 | 0.00 | 94 | 1023.4 |
| 20260906053858 | 69 | 262 | 0.0 | 0.0 | 0.00 | 0.00 | 0.00 | 94 | 1023.4 |
| 20260906053354 | 69 | 272 | 0.0 | 0.0 | 0.00 | 0.00 | 0.00 | 94 | 1023.4 |
| 20260906052850 | 69 | 294 | 1.0 | 1.0 | 0.00 | 0.00 | 0.00 | 94 | 1023.3 |
| 20260906052346 | 69 | 275 | 0.0 | 0.0 | 0.00 | 0.00 | 0.00 | 94 | 1023.4 |
| 20260906051843 | 69 | 277 | 0.0 | 0.0 | 0.00 | 0.00 | 0.00 | 94 | 1023.2 |
| 20260906051342 | 69 | 304 | 2.0 | 2.0 | 0.00 | 0.00 | 0.00 | 94 | 1023.5 |
| 20260906050838 | 69 | 291 | 1.0 | 1.0 | 0.00 | 0.00 | 0.00 | 94 | 1023.5 |
| 20260906050333 | 69 | 287 | 1.0 | 1.0 | 0.00 | 0.00 | 0.00 | 94 | 1023.7 |
| 20260906045831 | 69 | 261 | 0.0 | 0.0 | 0.00 | 0.00 | 0.00 | 94 | 1023.7 |
| 20260906045326 | 69 | 270 | 1.0 | 1.0 | 0.00 | 0.00 | 0.00 | 94 | 1023.7 |
| 20260906044823 | 69 | 244 | 1.0 | 1.0 | 0.00 | 0.00 | 0.00 | 94 | 1023.8 |
| 20260906044317 | 69 | 264 | 1.0 | 1.0 | 0.00 | 0.00 | 0.00 | 94 | 1024.0 |
| 20260906043813 | 69 | 311 | 2.0 | 2.0 | 0.00 | 0.00 | 0.00 | 94 | 1024.2 |
| 20260906043309 | 69 | 267 | 0.0 | 0.0 | 0.00 | 0.00 | 0.00 | 94 | 1024.0 |
| 20260906042808 | 69 | 267 | 0.0 | 0.0 | 0.00 | 0.00 | 0.00 | 94 | 1023.9 |
| 20260906042307 | 69 | 268 | 0.0 | 0.0 | 0.00 | 0.00 | 0.00 | 94 | 1024.3 |
| 20260906041804 | 69 | 264 | 0.0 | 0.0 | 0.00 | 0.00 | 0.00 | 94 | 1024.3 |
| 20260906041304 | 69 | 261 | 0.0 | 0.0 | 0.00 | 0.00 | 0.00 | 94 | 1024.2 |
| 20260906040759 | 69 | 261 | 0.0 | 0.0 | 0.00 | 0.00 | 0.00 | 94 | 1024.2 |
| 20260906040254 | 70 | 261 | 0.0 | 0.0 | 0.00 | 0.00 | 0.00 | 94 | 1024.2 |
| 20260906035749 | 70 | 285 | 0.0 | 0.0 | 0.00 | 0.62 | 0.62 | 94 | 1024.2 |
| 20260906035246 | 69 | 305 | 1.0 | 1.0 | 0.00 | 0.62 | 0.62 | 94 | 1024.3 |
| 20260906034745 | 69 | 318 | 2.0 | 2.0 | 0.00 | 0.62 | 0.62 | 94 | 1024.5 |
| 20260906034240 | 70 | 241 | 1.0 | 1.0 | 0.00 | 0.62 | 0.62 | 94 | 1024.2 |
| 20260906033736 | 69 | 266 | 0.0 | 0.0 | 0.00 | 0.62 | 0.62 | 94 | 1024.2 |
| 20260906033235 | 70 | 266 | 0.0 | 0.0 | 0.00 | 0.62 | 0.62 | 94 | 1024.2 |
| 20260906032732 | 70 | 266 | 1.0 | 1.0 | 0.00 | 0.62 | 0.62 | 94 | 1024.3 |
| 20260906032227 | 70 | 271 | 0.0 | 0.0 | 0.00 | 0.62 | 0.62 | 94 | 1024.5 |
| 20260906031722 | 70 | 285 | 1.0 | 1.0 | 0.00 | 0.62 | 0.62 | 94 | 1024.2 |
| 20260906031218 | 70 | 259 | 0.0 | 0.0 | 0.00 | 0.62 | 0.62 | 94 | 1024.3 |
| 20260906030718 | 70 | 259 | 0.0 | 0.0 | 0.00 | 0.62 | 0.62 | 94 | 1024.4 |
| 20260906030213 | 70 | 261 | 1.0 | 1.0 | 0.00 | 0.62 | 0.62 | 94 | 1024.4 |
| 20260906025711 | 70 | 275 | 0.0 | 0.0 | 0.00 | 0.62 | 0.62 | 94 | 1024.3 |
| 20260906025206 | 70 | 265 | 0.0 | 0.0 | 0.00 | 0.62 | 0.62 | 94 | 1024.5 |
| 20260906024705 | 70 | 242 | 0.0 | 1.0 | 0.00 | 0.62 | 0.62 | 94 | 1024.5 |
| 20260906024204 | 71 | 233 | 2.0 | 2.0 | 0.00 | 0.62 | 0.62 | 94 | 1024.7 |
| 20260906023701 | 71 | 239 | 0.0 | 1.0 | 0.00 | 0.62 | 0.62 | 94 | 1024.8 |
| 20260906023200 | 71 | 208 | 1.0 | 1.0 | 0.00 | 0.62 | 0.62 | 94 | 1024.9 |
| 20260906022655 | 71 | 190 | 1.0 | 2.0 | 0.00 | 0.62 | 0.62 | 94 | 1025.0 |
| 20260906022151 | 71 | 250 | 1.0 | 1.0 | 0.00 | 0.62 | 0.62 | 94 | 1025.0 |
| 20260906021647 | 71 | 233 | 2.0 | 4.0 | 0.00 | 0.62 | 0.62 | 94 | 1024.6 |
| 20260906021145 | 71 | 187 | 2.0 | 2.0 | 0.00 | 0.62 | 0.62 | 94 | 1024.5 |
| 20260906020640 | 71 | 204 | 2.0 | 2.0 | 0.00 | 0.62 | 0.62 | 94 | 1024.1 |
| 20260906020135 | 71 | 133 | 2.0 | 2.0 | 0.00 | 0.62 | 0.62 | 94 | 1024.3 |
| 20260906015629 | 71 | 313 | 1.0 | 1.0 | 0.00 | 0.62 | 0.62 | 94 | 1024.4 |
| 20260906015129 | 70 | 161 | 3.0 | 5.0 | 0.00 | 0.62 | 0.62 | 94 | 1024.4 |
| 20260906014628 | 70 | 102 | 3.0 | 4.0 | 0.00 | 0.62 | 0.62 | 94 | 1024.2 |
| 20260906014125 | 70 | 206 | 2.0 | 2.0 | 0.00 | 0.62 | 0.62 | 94 | 1024.2 |
| 20260906013620 | 70 | 113 | 3.0 | 5.0 | 0.05 | 0.62 | 0.62 | 94 | 1024.2 |
| 20260906013115 | 69 | 277 | 1.0 | 1.0 | 0.05 | 0.62 | 0.62 | 94 | 1024.3 |
| 20260906012610 | 69 | 40 | 2.0 | 2.0 | 0.05 | 0.62 | 0.62 | 94 | 1023.8 |
| 20260906012110 | 69 | 111 | 3.0 | 4.0 | 0.00 | 0.61 | 0.61 | 94 | 1023.3 |
| 20260906011607 | 69 | 157 | 2.0 | 2.0 | 0.00 | 0.61 | 0.61 | 94 | 1023.5 |
| 20260906011106 | 69 | 158 | 3.0 | 4.0 | 0.00 | 0.61 | 0.61 | 94 | 1023.9 |
| 20260906010602 | 69 | 227 | 0.0 | 1.0 | 0.00 | 0.61 | 0.61 | 94 | 1024.3 |
| 20260906010058 | 69 | 320 | 3.0 | 4.0 | 0.00 | 0.61 | 0.61 | 94 | 1024.0 |
| 20260906005557 | 69 | 266 | 2.0 | 2.0 | 0.00 | 0.61 | 0.61 | 94 | 1023.9 |
| 20260906005056 | 69 | 267 | 0.0 | 0.0 | 0.00 | 0.61 | 0.61 | 94 | 1023.6 |
| 20260906004556 | 69 | 267 | 0.0 | 0.0 | 0.00 | 0.61 | 0.61 | 94 | 1023.8 |
| 20260906004051 | 69 | 264 | 2.0 | 2.0 | 0.00 | 0.61 | 0.61 | 94 | 1023.7 |
| 20260906003540 | 69 | 219 | 2.0 | 2.0 | 0.00 | 0.61 | 0.61 | 94 | 1023.6 |
| 20260906003037 | 69 | 282 | 0.0 | 0.0 | 0.00 | 0.61 | 0.61 | 94 | 1023.7 |
| 20260906002536 | 69 | 322 | 1.0 | 1.0 | 0.00 | 0.61 | 0.61 | 94 | 1023.8 |
| 20260906002032 | 69 | 261 | 1.0 | 1.0 | 0.00 | 0.61 | 0.61 | 94 | 1023.7 |
| 20260906001528 | 69 | 259 | 0.0 | 0.0 | 0.00 | 0.61 | 0.61 | 94 | 1023.7 |
| 20260906001027 | 69 | 249 | 0.0 | 0.0 | 0.00 | 0.61 | 0.61 | 94 | 1023.6 |
| 20260906000523 | 69 | 243 | 0.0 | 1.0 | 0.00 | 0.61 | 0.61 | 94 | 1023.4 |
| 20260906000018 | 69 | 275 | 0.0 | 0.0 | 0.00 | 0.61 | 0.61 | 94 | 1023.4 |
| 20260905235517 | 69 | 280 | 0.0 | 1.0 | 0.00 | 0.61 | 0.61 | 94 | 1023.5 |
| 20260905235013 | 69 | 272 | 0.0 | 0.0 | 0.00 | 0.61 | 0.61 | 94 | 1023.5 |
| 20260905234509 | 69 | 52 | 2.0 | 4.0 | 0.00 | 0.61 | 0.61 | 94 | 1023.5 |
| 20260905234008 | 69 | 18 | 3.0 | 4.0 | 0.00 | 0.61 | 0.61 | 94 | 1023.2 |
| 20260905233503 | 69 | 240 | 2.0 | 2.0 | 0.00 | 0.61 | 0.61 | 94 | 1023.2 |
| 20260905233003 | 69 | 5 | 4.0 | 5.0 | 0.00 | 0.61 | 0.61 | 94 | 1023.7 |
| 20260905232458 | 69 | 87 | 4.0 | 6.0 | 0.00 | 0.61 | 0.61 | 94 | 1023.9 |
| 20260905231954 | 69 | 238 | 1.0 | 1.0 | 0.00 | 0.61 | 0.61 | 94 | 1023.7 |
| 20260905231449 | 69 | 210 | 0.0 | 0.0 | 0.00 | 0.61 | 0.61 | 94 | 1023.9 |
| 20260905230946 | 69 | 258 | 0.0 | 0.0 | 0.00 | 0.61 | 0.61 | 94 | 1023.9 |
| 20260905230444 | 69 | 170 | 2.0 | 2.0 | 0.00 | 0.61 | 0.61 | 94 | 1023.6 |
| 20260905225942 | 69 | 252 | 2.0 | 4.0 | 0.00 | 0.61 | 0.61 | 94 | 1023.3 |
| 20260905225438 | 69 | 258 | 0.0 | 0.0 | 0.00 | 0.61 | 0.61 | 94 | 1023.0 |
| 20260905224933 | 70 | 195 | 3.0 | 4.0 | 0.07 | 0.61 | 0.61 | 94 | 1022.9 |
| 20260905224429 | 70 | 210 | 4.0 | 5.0 | 0.14 | 0.61 | 0.61 | 94 | 1022.7 |
| 20260905223928 | 71 | 243 | 1.0 | 1.0 | 0.35 | 0.60 | 0.60 | 94 | 1023.5 |
| 20260905223426 | 71 | 219 | 2.0 | 4.0 | 1.13 | 0.60 | 0.60 | 94 | 1023.9 |
| 20260905222926 | 71 | 239 | 2.0 | 2.0 | 2.06 | 0.56 | 0.56 | 94 | 1024.6 |
| 20260905222426 | 70 | 29 | 6.0 | 8.0 | 2.10 | 0.41 | 0.41 | 93 | 1024.9 |
| 20260905221921 | 72 | 46 | 7.0 | 12.0 | 1.21 | 0.21 | 0.21 | 92 | 1025.5 |
| 20260905221418 | 77 | 20 | 7.0 | 9.0 | 0.19 | 0.04 | 0.04 | 85 | 1024.8 |
| 20260905220914 | 77 | 38 | 3.0 | 5.0 | 0.00 | 0.01 | 0.01 | 80 | 1024.2 |
| 20260905220410 | 79 | 30 | 13.0 | 17.0 | 0.00 | 0.01 | 0.01 | 79 | 1023.7 |
| 20260905215908 | 81 | 315 | 6.0 | 7.0 | 0.00 | 0.01 | 0.01 | 86 | 1022.8 |
| 20260905215404 | 82 | 246 | 0.0 | 0.0 | 0.00 | 0.01 | 0.01 | 86 | 1021.4 |
| 20260905214901 | 83 | 259 | 1.0 | 2.0 | 0.00 | 0.01 | 0.01 | 87 | 1021.6 |
| 20260905214356 | 83 | 194 | 1.0 | 1.0 | 0.00 | 0.01 | 0.01 | 88 | 1021.6 |
| 20260905213850 | 82 | 209 | 2.0 | 2.0 | 0.00 | 0.01 | 0.01 | 85 | 1021.9 |
| 20260905213348 | 82 | 327 | 3.0 | 4.0 | 0.00 | 0.01 | 0.01 | 88 | 1022.1 |
| 20260905212847 | 82 | 292 | 2.0 | 4.0 | 0.00 | 0.01 | 0.01 | 86 | 1021.9 |
| 20260905212342 | 83 | 259 | 2.0 | 2.0 | 0.00 | 0.01 | 0.01 | 85 | 1021.8 |
| 20260905211841 | 84 | 233 | 2.0 | 2.0 | 0.05 | 0.01 | 0.01 | 85 | 1022.0 |
| 20260905211337 | 85 | 257 | 2.0 | 2.0 | 0.05 | 0.01 | 0.01 | 83 | 1021.9 |
| 20260905210834 | 87 | 251 | 1.0 | 1.0 | 0.00 | 0.00 | 0.00 | 80 | 1021.8 |
| 20260905210333 | 90 | 264 | 1.0 | 2.0 | 0.00 | 0.00 | 0.00 | 73 | 1022.2 |
| 20260905205832 | 93 | 243 | 1.0 | 1.0 | 0.00 | 0.00 | 0.00 | 61 | 1022.2 |
| 20260905205327 | 93 | 270 | 2.0 | 2.0 | 0.00 | 0.00 | 0.00 | 60 | 1022.0 |
| 20260905204826 | 94 | 237 | 2.0 | 4.0 | 0.00 | 0.00 | 0.00 | 58 | 1021.8 |
| 20260905204323 | 97 | 242 | 1.0 | 1.0 | 0.00 | 0.00 | 0.00 | 54 | 1021.7 |
| 20260905203821 | 96 | 231 | 3.0 | 4.0 | 0.00 | 0.00 | 0.00 | 57 | 1021.6 |
| 20260905203317 | 97 | 253 | 2.0 | 2.0 | 0.00 | 0.00 | 0.00 | 55 | 1021.5 |
| 20260905202813 | 97 | 259 | 0.0 | 1.0 | 0.00 | 0.00 | 0.00 | 54 | 1021.4 |
| 20260905202307 | 97 | 233 | 2.0 | 4.0 | 0.00 | 0.00 | 0.00 | 54 | 1021.6 |
| 20260905201803 | 97 | 226 | 0.0 | 0.0 | 0.00 | 0.00 | 0.00 | 51 | 1021.7 |
| 20260905201258 | 96 | 241 | 2.0 | 2.0 | 0.00 | 0.00 | 0.00 | 53 | 1021.5 |
| 20260905200753 | 96 | 255 | 1.0 | 2.0 | 0.00 | 0.00 | 0.00 | 53 | 1021.6 |
| 20260905200249 | 96 | 228 | 2.0 | 4.0 | 0.00 | 0.00 | 0.00 | 53 | 1021.8 |
| 20260905195746 | 98 | 251 | 5.0 | 6.0 | 0.00 | 0.00 | 0.00 | 50 | 1021.9 |
| 20260905195241 | 96 | 209 | 2.0 | 4.0 | 0.00 | 0.00 | 0.00 | 54 | 1021.9 |
| 20260905194737 | 97 | 244 | 1.0 | 1.0 | 0.00 | 0.00 | 0.00 | 54 | 1022.1 |
| 20260905194236 | 96 | 230 | 1.0 | 1.0 | 0.00 | 0.00 | 0.00 | 55 | 1021.8 |
| 20260905193736 | 95 | 214 | 2.0 | 4.0 | 0.00 | 0.00 | 0.00 | 56 | 1022.1 |
| 20260905193231 | 95 | 177 | 4.0 | 5.0 | 0.00 | 0.00 | 0.00 | 56 | 1022.0 |
| 20260905192727 | 96 | 258 | 4.0 | 5.0 | 0.00 | 0.00 | 0.00 | 54 | 1022.2 |
| 20260905192223 | 96 | 216 | 0.0 | 0.0 | 0.00 | 0.00 | 0.00 | 54 | 1022.3 |
| 20260905191722 | 95 | 265 | 2.0 | 2.0 | 0.00 | 0.00 | 0.00 | 53 | 1022.3 |
| 20260905191220 | 95 | 236 | 1.0 | 1.0 | 0.00 | 0.00 | 0.00 | 55 | 1022.4 |
| 20260905190719 | 95 | 229 | 2.0 | 4.0 | 0.00 | 0.00 | 0.00 | 54 | 1022.6 |
| 20260905190218 | 95 | 231 | 4.0 | 5.0 | 0.00 | 0.00 | 0.00 | 54 | 1022.6 |
| 20260905185718 | 96 | 292 | 3.0 | 5.0 | 0.00 | 0.00 | 0.00 | 58 | 1022.9 |
| 20260905185212 | 96 | 223 | 1.0 | 2.0 | 0.00 | 0.00 | 0.00 | 53 | 1022.8 |
| 20260905184707 | 94 | 231 | 3.0 | 4.0 | 0.00 | 0.00 | 0.00 | 54 | 1023.3 |
| 20260905184206 | 94 | 259 | 4.0 | 5.0 | 0.00 | 0.00 | 0.00 | 57 | 1023.2 |
| 20260905183705 | 94 | 207 | 4.0 | 5.0 | 0.00 | 0.00 | 0.00 | 57 | 1023.1 |
| 20260905183201 | 95 | 266 | 2.0 | 2.0 | 0.00 | 0.00 | 0.00 | 57 | 1023.3 |
| 20260905182700 | 94 | 251 | 3.0 | 4.0 | 0.00 | 0.00 | 0.00 | 58 | 1023.5 |
| 20260905182200 | 95 | 213 | 5.0 | 5.0 | 0.00 | 0.00 | 0.00 | 58 | 1023.5 |
| 20260905181655 | 95 | 212 | 2.0 | 4.0 | 0.00 | 0.00 | 0.00 | 60 | 1023.6 |
| 20260905181154 | 93 | 11 | 3.0 | 4.0 | 0.00 | 0.00 | 0.00 | 58 | 1023.6 |
| 20260905180649 | 94 | 167 | 3.0 | 4.0 | 0.00 | 0.00 | 0.00 | 58 | 1023.8 |
| 20260905180145 | 93 | 232 | 2.0 | 4.0 | 0.00 | 0.00 | 0.00 | 60 | 1023.8 |
| 20260905175643 | 93 | 193 | 4.0 | 5.0 | 0.00 | 0.00 | 0.00 | 58 | 1023.8 |
| 20260905175139 | 94 | 287 | 4.0 | 4.0 | 0.00 | 0.00 | 0.00 | 58 | 1024.0 |
| 20260905174635 | 93 | 312 | 4.0 | 5.0 | 0.00 | 0.00 | 0.00 | 60 | 1024.2 |
| 20260905174130 | 93 | 273 | 3.0 | 4.0 | 0.00 | 0.00 | 0.00 | 61 | 1023.9 |
| 20260905173626 | 93 | 230 | 4.0 | 5.0 | 0.00 | 0.00 | 0.00 | 60 | 1024.2 |
| 20260905173122 | 92 | 165 | 2.0 | 2.0 | 0.00 | 0.00 | 0.00 | 62 | 1024.2 |
| 20260905172620 | 93 | 225 | 3.0 | 6.0 | 0.00 | 0.00 | 0.00 | 60 | 1024.2 |
| 20260905172115 | 92 | 175 | 2.0 | 4.0 | 0.00 | 0.00 | 0.00 | 62 | 1024.2 |
| 20260905171612 | 93 | 219 | 6.0 | 8.0 | 0.00 | 0.00 | 0.00 | 61 | 1024.2 |
| 20260905171108 | 92 | 83 | 2.0 | 2.0 | 0.00 | 0.00 | 0.00 | 62 | 1024.1 |
| 20260905170604 | 92 | 222 | 3.0 | 5.0 | 0.00 | 0.00 | 0.00 | 63 | 1024.2 |
| 20260905170059 | 92 | 220 | 2.0 | 2.0 | 0.00 | 0.00 | 0.00 | 64 | 1024.5 |
| 20260905165600 | 92 | 234 | 3.0 | 4.0 | 0.00 | 0.00 | 0.00 | 63 | 1024.5 |
| 20260905165055 | 91 | 186 | 3.0 | 5.0 | 0.00 | 0.00 | 0.00 | 63 | 1024.7 |
| 20260905164550 | 91 | 191 | 4.0 | 6.0 | 0.00 | 0.00 | 0.00 | 63 | 1024.7 |
| 20260905164049 | 91 | 231 | 1.0 | 4.0 | 0.00 | 0.00 | 0.00 | 64 | 1024.9 |
| 20260905163546 | 91 | 250 | 5.0 | 7.0 | 0.00 | 0.00 | 0.00 | 64 | 1025.1 |
| 20260905163042 | 92 | 238 | 4.0 | 6.0 | 0.00 | 0.00 | 0.00 | 65 | 1025.0 |
| 20260905162538 | 90 | 199 | 2.0 | 4.0 | 0.00 | 0.00 | 0.00 | 67 | 1025.1 |
| 20260905162032 | 92 | 156 | 2.0 | 2.0 | 0.00 | 0.00 | 0.00 | 64 | 1025.1 |
| 20260905161532 | 91 | 246 | 2.0 | 2.0 | 0.00 | 0.00 | 0.00 | 65 | 1025.1 |
| 20260905161029 | 90 | 260 | 2.0 | 2.0 | 0.00 | 0.00 | 0.00 | 68 | 1025.2 |
| 20260905160528 | 90 | 193 | 4.0 | 5.0 | 0.00 | 0.00 | 0.00 | 64 | 1025.3 |
| 20260905160023 | 90 | 210 | 1.0 | 1.0 | 0.00 | 0.00 | 0.00 | 66 | 1025.4 |
| 20260905155523 | 91 | 280 | 3.0 | 4.0 | 0.00 | 0.00 | 0.00 | 65 | 1025.6 |
| 20260905155021 | 89 | 250 | 3.0 | 6.0 | 0.00 | 0.00 | 0.00 | 68 | 1025.5 |
| 20260905154517 | 89 | 244 | 7.0 | 9.0 | 0.00 | 0.00 | 0.00 | 67 | 1025.6 |
| 20260905154012 | 89 | 177 | 2.0 | 2.0 | 0.00 | 0.00 | 0.00 | 69 | 1025.6 |
| 20260905153508 | 89 | 195 | 6.0 | 7.0 | 0.00 | 0.00 | 0.00 | 69 | 1025.7 |
| 20260905153008 | 88 | 159 | 4.0 | 6.0 | 0.00 | 0.00 | 0.00 | 70 | 1025.5 |
| 20260905152508 | 88 | 171 | 2.0 | 2.0 | 0.00 | 0.00 | 0.00 | 70 | 1025.7 |
| 20260905152002 | 89 | 204 | 4.0 | 5.0 | 0.00 | 0.00 | 0.00 | 70 | 1025.6 |
| 20260905151458 | 88 | 244 | 2.0 | 4.0 | 0.00 | 0.00 | 0.00 | 70 | 1025.7 |
| 20260905150952 | 89 | 255 | 6.0 | 7.0 | 0.00 | 0.00 | 0.00 | 69 | 1025.7 |
| 20260905150448 | 87 | 242 | 4.0 | 5.0 | 0.00 | 0.00 | 0.00 | 71 | 1025.8 |
| 20260905145944 | 88 | 236 | 2.0 | 4.0 | 0.00 | 0.00 | 0.00 | 72 | 1025.8 |
| 20260905145439 | 87 | 235 | 5.0 | 7.0 | 0.00 | 0.00 | 0.00 | 73 | 1026.0 |
| 20260905144938 | 87 | 227 | 4.0 | 6.0 | 0.00 | 0.00 | 0.00 | 72 | 1025.7 |
| 20260905144434 | 87 | 268 | 5.0 | 6.0 | 0.00 | 0.00 | 0.00 | 73 | 1025.8 |
| 20260905143933 | 86 | 256 | 4.0 | 5.0 | 0.00 | 0.00 | 0.00 | 74 | 1025.8 |
| 20260905143432 | 87 | 279 | 4.0 | 7.0 | 0.00 | 0.00 | 0.00 | 74 | 1025.8 |
| 20260905142932 | 87 | 222 | 2.0 | 2.0 | 0.00 | 0.00 | 0.00 | 74 | 1025.8 |
| 20260905142431 | 86 | 263 | 0.0 | 1.0 | 0.00 | 0.00 | 0.00 | 75 | 1026.1 |
| 20260905141922 | 85 | 272 | 3.0 | 5.0 | 0.00 | 0.00 | 0.00 | 77 | 1026.1 |
| 20260905141422 | 85 | 240 | 6.0 | 9.0 | 0.00 | 0.00 | 0.00 | 76 | 1026.0 |
| 20260905140918 | 85 | 216 | 4.0 | 5.0 | 0.00 | 0.00 | 0.00 | 76 | 1025.9 |
| 20260905140413 | 84 | 208 | 5.0 | 7.0 | 0.00 | 0.00 | 0.00 | 77 | 1026.1 |
| 20260905135912 | 84 | 186 | 6.0 | 7.0 | 0.00 | 0.00 | 0.00 | 78 | 1026.0 |
| 20260905135408 | 84 | 171 | 2.0 | 4.0 | 0.00 | 0.00 | 0.00 | 78 | 1025.8 |
| 20260905134903 | 85 | 236 | 3.0 | 5.0 | 0.00 | 0.00 | 0.00 | 77 | 1025.8 |
| 20260905134402 | 84 | 179 | 3.0 | 4.0 | 0.00 | 0.00 | 0.00 | 79 | 1025.9 |
| 20260905133856 | 84 | 244 | 2.0 | 2.0 | 0.00 | 0.00 | 0.00 | 80 | 1026.1 |
| 20260905133351 | 83 | 222 | 1.0 | 1.0 | 0.00 | 0.00 | 0.00 | 81 | 1026.0 |
| 20260905132851 | 83 | 295 | 3.0 | 4.0 | 0.00 | 0.00 | 0.00 | 82 | 1026.2 |
| 20260905132347 | 83 | 137 | 1.0 | 1.0 | 0.00 | 0.00 | 0.00 | 82 | 1026.2 |
| 20260905131846 | 82 | 220 | 2.0 | 4.0 | 0.00 | 0.00 | 0.00 | 84 | 1026.2 |
| 20260905131342 | 81 | 231 | 3.0 | 5.0 | 0.00 | 0.00 | 0.00 | 85 | 1026.3 |
| 20260905130837 | 81 | 277 | 2.0 | 4.0 | 0.00 | 0.00 | 0.00 | 85 | 1026.2 |
| 20260905130335 | 81 | 206 | 1.0 | 1.0 | 0.00 | 0.00 | 0.00 | 86 | 1026.3 |
| 20260905125831 | 81 | 177 | 3.0 | 5.0 | 0.00 | 0.00 | 0.00 | 85 | 1026.4 |
| 20260905125326 | 81 | 188 | 2.0 | 2.0 | 0.00 | 0.00 | 0.00 | 86 | 1026.4 |
| 20260905124822 | 80 | 207 | 1.0 | 1.0 | 0.00 | 0.00 | 0.00 | 89 | 1026.5 |
| 20260905124318 | 78 | 228 | 2.0 | 2.0 | 0.00 | 0.00 | 0.00 | 92 | 1026.3 |
| 20260905123813 | 78 | 192 | 2.0 | 2.0 | 0.00 | 0.00 | 0.00 | 93 | 1026.2 |
| 20260905123310 | 78 | 256 | 1.0 | 1.0 | 0.00 | 0.00 | 0.00 | 94 | 1026.3 |
| 20260905122809 | 77 | 233 | 1.0 | 1.0 | 0.00 | 0.00 | 0.00 | 94 | 1026.2 |
| 20260905122309 | 77 | 199 | 1.0 | 1.0 | 0.00 | 0.00 | 0.00 | 94 | 1026.3 |
| 20260905121804 | 77 | 242 | 1.0 | 1.0 | 0.00 | 0.00 | 0.00 | 94 | 1026.3 |
| 20260905121301 | 76 | 209 | 2.0 | 2.0 | 0.00 | 0.00 | 0.00 | 94 | 1026.2 |
| 20260905120759 | 76 | 227 | 2.0 | 4.0 | 0.00 | 0.00 | 0.00 | 94 | 1026.0 |
| 20260905120259 | 76 | 240 | 2.0 | 2.0 | 0.00 | 0.00 | 0.00 | 94 | 1026.2 |
| 20260905115755 | 76 | 209 | 0.0 | 0.0 | 0.00 | 0.00 | 0.00 | 94 | 1026.0 |
| 20260905115254 | 76 | 200 | 1.0 | 2.0 | 0.00 | 0.00 | 0.00 | 94 | 1026.0 |
| 20260905114754 | 75 | 214 | 0.0 | 0.0 | 0.00 | 0.00 | 0.00 | 94 | 1025.9 |